| time (UTC) | temp F | wind direction | speed MPH | gust MPH | rain 1hr in | rain 24hr in | rain mn in | humidity % | barometer mb |
| 20260903013038 | 64 | 164 | 0.0 | 5.0 | 0.00 | 0.01 | 0.01 | 85 | 1018.6 |
| 20260903011555 | 64 | 305 | 0.0 | 2.0 | 0.00 | 0.01 | 0.01 | 84 | 1018.5 |
| 20260903010037 | 64 | 280 | 0.0 | 4.0 | 0.00 | 0.01 | 0.01 | 84 | 1018.3 |
| 20260903004539 | 65 | 79 | 0.0 | 2.0 | 0.00 | 0.01 | 0.01 | 85 | 1018.3 |
| 20260903003035 | 65 | 285 | 0.0 | 1.0 | 0.00 | 0.01 | 0.01 | 85 | 1018.0 |
| 20260903001635 | 65 | 68 | 0.0 | 3.0 | 0.00 | 0.01 | 0.01 | 85 | 1018.2 |
| 20260903000034 | 65 | 294 | 0.0 | 2.0 | 0.00 | 0.01 | 0.01 | 85 | 1017.8 |
| 20260902234539 | 65 | 18 | 0.0 | 7.0 | 0.00 | 0.01 | 0.01 | 85 | 1017.8 |
| 20260902233031 | 65 | 163 | 0.0 | 2.0 | 0.00 | 0.01 | 0.01 | 85 | 1017.9 |
| 20260902231538 | 65 | 262 | 0.0 | 1.0 | 0.00 | 0.01 | 0.01 | 85 | 1018.4 |
| 20260902230030 | 65 | 27 | 0.0 | 1.0 | 0.00 | 0.01 | 0.01 | 84 | 1019.2 |
| 20260902224523 | 65 | 290 | 0.0 | 1.0 | 0.00 | 0.01 | 0.01 | 84 | 1019.5 |
| 20260902223022 | 66 | 290 | 0.0 | 1.0 | 0.00 | 0.01 | 0.01 | 83 | 1019.6 |
| 20260902221522 | 66 | 290 | 0.0 | 1.0 | 0.00 | 0.01 | 0.01 | 83 | 1019.8 |
| 20260902220021 | 66 | 308 | 0.0 | 1.0 | 0.00 | 0.01 | 0.01 | 84 | 1019.9 |
| 20260902214521 | 67 | 343 | 0.0 | 1.0 | 0.00 | 0.01 | 0.01 | 82 | 1019.5 |
| 20260902213019 | 67 | 304 | 0.0 | 3.0 | 0.00 | 0.01 | 0.01 | 82 | 1019.5 |
| 20260902211526 | 67 | 309 | 0.0 | 1.0 | 0.00 | 0.01 | 0.01 | 80 | 1019.6 |
| 20260902210019 | 67 | 293 | 0.0 | 1.0 | 0.00 | 0.01 | 0.01 | 80 | 1019.8 |
| 20260902204518 | 68 | 22 | 0.0 | 3.0 | 0.00 | 0.01 | 0.01 | 79 | 1020.0 |
| 20260902203017 | 68 | 183 | 0.0 | 5.0 | 0.00 | 0.01 | 0.01 | 77 | 1019.9 |
| 20260902201518 | 69 | 158 | 0.0 | 3.0 | 0.00 | 0.01 | 0.01 | 77 | 1019.9 |
| 20260902200016 | 69 | 338 | 0.0 | 4.0 | 0.00 | 0.01 | 0.01 | 76 | 1019.9 |
| 20260902194517 | 69 | 127 | 0.0 | 3.0 | 0.00 | 0.01 | 0.01 | 75 | 1020.1 |
| 20260902193015 | 70 | 139 | 1.0 | 5.0 | 0.00 | 0.01 | 0.01 | 73 | 1020.1 |
| 20260902191512 | 70 | 229 | 0.0 | 4.0 | 0.00 | 0.01 | 0.01 | 75 | 1020.1 |
| 20260902190009 | 68 | 136 | 0.0 | 1.0 | 0.00 | 0.01 | 0.01 | 79 | 1020.5 |
| 20260902184508 | 67 | 243 | 0.0 | 2.0 | 0.00 | 0.01 | 0.01 | 79 | 1020.9 |
| 20260902183013 | 68 | 152 | 0.0 | 0.0 | 0.00 | 0.01 | 0.01 | 78 | 1021.2 |
| 20260902181507 | 67 | 217 | 0.0 | 4.0 | 0.00 | 0.01 | 0.01 | 78 | 1020.8 |
| 20260902180010 | 67 | 158 | 0.0 | 2.0 | 0.00 | 0.01 | 0.01 | 78 | 1020.8 |
| 20260902174507 | 67 | 247 | 1.0 | 4.0 | 0.00 | 0.01 | 0.01 | 77 | 1020.6 |
| 20260902173004 | 67 | 82 | 0.0 | 2.0 | 0.00 | 0.01 | 0.01 | 77 | 1020.9 |
| 20260902171505 | 67 | 250 | 0.0 | 2.0 | 0.00 | 0.01 | 0.01 | 77 | 1020.9 |
| 20260902170004 | 67 | 117 | 0.0 | 0.0 | 0.00 | 0.00 | 0.01 | 77 | 1021.1 |
| 20260902164504 | 68 | 121 | 0.0 | 1.0 | 0.00 | 0.01 | 0.01 | 76 | 1021.3 |
| 20260902163003 | 68 | 359 | 0.0 | 3.0 | 0.00 | 0.01 | 0.01 | 76 | 1021.0 |
| 20260902161601 | 67 | 36 | 0.0 | 2.0 | 0.00 | 0.01 | 0.01 | 77 | 1021.1 |
| 20260902160106 | 67 | 85 | 0.0 | 3.0 | 0.00 | 0.01 | 0.01 | 76 | 1021.4 |
| 20260902154559 | 68 | 66 | 0.0 | 2.0 | 0.00 | 0.01 | 0.01 | 77 | 1021.6 |
| 20260902153059 | 68 | 285 | 0.0 | 2.0 | 0.00 | 0.01 | 0.01 | 76 | 1021.8 |
| 20260902151556 | 67 | 131 | 0.0 | 4.0 | 0.00 | 0.01 | 0.01 | 75 | 1022.0 |
| 20260902150055 | 67 | 143 | 0.0 | 2.0 | 0.00 | 0.01 | 0.01 | 75 | 1022.0 |
| 20260902144551 | 67 | 292 | 0.0 | 2.0 | 0.00 | 0.02 | 0.01 | 78 | 1021.7 |
| 20260902143049 | 66 | 93 | 0.0 | 2.0 | 0.00 | 0.02 | 0.01 | 79 | 1021.7 |
| 20260902141546 | 65 | 269 | 0.0 | 2.0 | 0.00 | 0.02 | 0.01 | 80 | 1021.7 |
| 20260902140045 | 65 | 79 | 0.0 | 4.0 | 0.00 | 0.02 | 0.01 | 80 | 1021.5 |
| 20260902134543 | 65 | 316 | 0.0 | 2.0 | 0.00 | 0.04 | 0.01 | 85 | 1021.4 |
| 20260902133040 | 64 | 316 | 0.0 | 1.0 | 0.00 | 0.04 | 0.01 | 86 | 1021.0 |
| 20260902131537 | 63 | 285 | 0.0 | 2.0 | 0.00 | 0.04 | 0.01 | 87 | 1021.0 |
| 20260902130035 | 63 | 297 | 0.0 | 2.0 | 0.00 | 0.04 | 0.01 | 88 | 1021.3 |
| 20260902124534 | 62 | 216 | 0.0 | 1.0 | 0.00 | 0.09 | 0.01 | 89 | 1021.4 |
| 20260902123038 | 62 | 270 | 0.0 | 1.0 | 0.00 | 0.09 | 0.01 | 89 | 1021.4 |
| 20260902121533 | 62 | 268 | 0.0 | 0.0 | 0.00 | 0.09 | 0.01 | 91 | 1021.4 |
| 20260902120035 | 61 | 269 | 0.0 | 0.0 | 0.00 | 0.09 | 0.01 | 91 | 1021.4 |
| 20260902114537 | 61 | 268 | 0.0 | 0.0 | 0.00 | 0.19 | 0.01 | 91 | 1021.3 |
| 20260902113035 | 60 | 268 | 0.0 | 1.0 | 0.00 | 0.19 | 0.01 | 91 | 1021.7 |
| 20260902111628 | 60 | 269 | 0.0 | 1.0 | 0.00 | 0.19 | 0.01 | 91 | 1021.5 |
| 20260902110027 | 60 | 268 | 0.0 | 0.0 | 0.00 | 0.19 | 0.01 | 91 | 1021.4 |
| 20260902104526 | 60 | 268 | 0.0 | 0.0 | 0.00 | 0.27 | 0.01 | 92 | 1021.2 |
| 20260902103029 | 60 | 268 | 0.0 | 1.0 | 0.00 | 0.27 | 0.01 | 92 | 1021.2 |
| 20260902101527 | 60 | 240 | 0.0 | 0.0 | 0.00 | 0.27 | 0.01 | 92 | 1021.0 |
| 20260902100025 | 60 | 240 | 0.0 | 0.0 | 0.00 | 0.27 | 0.01 | 92 | 1021.0 |
| 20260902094521 | 60 | 240 | 0.0 | 0.0 | 0.00 | 0.27 | 0.01 | 92 | 1021.0 |
| 20260902093021 | 61 | 240 | 0.0 | 1.0 | 0.00 | 0.27 | 0.01 | 92 | 1020.8 |
| 20260902091521 | 61 | 215 | 0.0 | 1.0 | 0.00 | 0.27 | 0.01 | 92 | 1020.6 |
| 20260902090021 | 61 | 215 | 0.0 | 1.0 | 0.00 | 0.27 | 0.01 | 92 | 1020.6 |
| 20260902084524 | 61 | 212 | 0.0 | 1.0 | 0.00 | 0.27 | 0.01 | 92 | 1020.7 |
| 20260902083017 | 61 | 212 | 0.0 | 0.0 | 0.00 | 0.27 | 0.01 | 92 | 1020.7 |
| 20260902081517 | 61 | 212 | 0.0 | 0.0 | 0.00 | 0.27 | 0.01 | 92 | 1020.8 |
| 20260902080014 | 61 | 212 | 0.0 | 0.0 | 0.00 | 0.27 | 0.01 | 92 | 1020.7 |
| 20260902074514 | 61 | 212 | 0.0 | 0.0 | 0.00 | 0.27 | 0.01 | 92 | 1020.8 |
| 20260902073013 | 61 | 197 | 0.0 | 0.0 | 0.00 | 0.27 | 0.01 | 92 | 1020.9 |
| 20260902071513 | 61 | 197 | 0.0 | 0.0 | 0.00 | 0.27 | 0.01 | 92 | 1020.8 |
| 20260902070013 | 62 | 197 | 0.0 | 0.0 | 0.00 | 0.27 | 0.01 | 92 | 1020.9 |
| 20260902064511 | 62 | 198 | 0.0 | 0.0 | 0.00 | 0.27 | 0.01 | 92 | 1020.8 |
| 20260902063009 | 62 | 198 | 0.0 | 0.0 | 0.00 | 0.27 | 0.01 | 92 | 1020.5 |
| 20260902061507 | 62 | 198 | 0.0 | 0.0 | 0.00 | 0.27 | 0.01 | 92 | 1020.5 |
| 20260902060007 | 62 | 198 | 0.0 | 0.0 | 0.00 | 0.27 | 0.01 | 92 | 1020.4 |
| 20260902054504 | 62 | 198 | 0.0 | 0.0 | 0.01 | 0.27 | 0.01 | 92 | 1020.2 |
| 20260902053004 | 62 | 198 | 0.0 | 0.0 | 0.01 | 0.27 | 0.01 | 92 | 1020.0 |
| 20260902051502 | 62 | 198 | 0.0 | 0.0 | 0.01 | 0.27 | 0.01 | 92 | 1020.0 |
| 20260902050003 | 62 | 198 | 0.0 | 0.0 | 0.01 | 0.27 | 0.01 | 92 | 1019.9 |
| 20260902044559 | 62 | 198 | 0.0 | 0.0 | 0.00 | 0.26 | 0.00 | 92 | 1019.8 |
| 20260902043104 | 62 | 198 | 0.0 | 0.0 | 0.00 | 0.26 | 0.00 | 92 | 1019.6 |
| 20260902041554 | 62 | 198 | 0.0 | 0.0 | 0.00 | 0.26 | 0.00 | 92 | 1019.3 |
| 20260902040053 | 62 | 198 | 0.0 | 0.0 | 0.00 | 0.26 | 0.00 | 92 | 1019.2 |
| 20260902034556 | 63 | 198 | 0.0 | 1.0 | 0.00 | 0.26 | 0.26 | 92 | 1019.2 |
| 20260902033055 | 63 | 198 | 0.0 | 0.0 | 0.00 | 0.26 | 0.26 | 91 | 1019.3 |
| 20260902031551 | 63 | 198 | 0.0 | 0.0 | 0.00 | 0.26 | 0.26 | 91 | 1019.3 |
| 20260902030050 | 63 | 155 | 0.0 | 0.0 | 0.00 | 0.26 | 0.26 | 91 | 1019.1 |
| 20260902024547 | 63 | 81 | 0.0 | 1.0 | 0.00 | 0.26 | 0.26 | 92 | 1019.0 |
| 20260902023051 | 63 | 158 | 0.0 | 1.0 | 0.00 | 0.26 | 0.26 | 92 | 1018.9 |
| 20260902021546 | 63 | 156 | 0.0 | 0.0 | 0.00 | 0.26 | 0.26 | 92 | 1018.8 |
| 20260902020045 | 63 | 238 | 0.0 | 0.0 | 0.00 | 0.26 | 0.26 | 92 | 1018.8 |
| 20260902014548 | 63 | 238 | 0.0 | 0.0 | 0.00 | 0.26 | 0.26 | 92 | 1018.8 |